CAPE
0 0 0 0 0 0 0 0 0 0 0 0 0 0 5 60 2 27 1202 1236 1299 1462 1773 1717 1702 1840 1944 2167 2041 1877 1950 2036 1935 1686 1475 1658 1718 1692 1549 1326 1111 979 803 213 180 43 22 24 14
0 0 0 0 0 0 0 0 0 0 0 0 0 87 256 18 561 855 1244 1152 1143 1135 1805 1964 1695 1813 1934 1927 1909 1917 2137 2062 1872 1703 1717 1789 1788 1761 1470 1149 804 665 681 114 137 44 32 25 13
0 0 0 0 0 0 0 0 0 0 0 0 0 15 72 80 861 1119 1140 948 1048 1040 1260 2067 1648 1758 1914 1956 1876 1412 1218 1748 1692 1689 1918 1897 1848 1666 1367 958 666 598 519 172 92 37 34 20 16
0 0 0 0 0 0 0 0 0 0 0 0 0 0 78 217 984 1287 829 829 760 1091 1152 1492 1381 1509 1839 1345 1351 755 702 960 827 1073 1206 1823 1712 1575 1222 872 737 564 519 197 25 33 28 13 11
0 0 0 0 0 0 0 0 0 0 0 0 0 0 25 112 450 549 538 406 637 885 1022 1515 1022 1285 1556 1069 720 831 1042 778 678 706 911 1259 1534 1304 1031 814 584 519 323 169 17 12 8 5 1
0 0 0 0 0 0 0 0 0 0 0 0 0 1 42 290 173 286 250 263 534 884 918 872 868 863 896 968 753 544 639 795 710 404 728 1080 1254 1111 898 776 668 568 316 92 13 13 4 2 0
0 0 0 0 0 0 0 0 0 0 0 0 0 0 94 321 256 241 155 263 347 667 931 768 886 860 323 701 381 525 618 680 495 364 479 713 877 772 841 770 625 540 208 7 5 5 5 2 0
0 0 0 0 0 0 0 0 0 0 0 0 0 0 10 429 256 301 288 249 115 234 488 674 669 913 709 628 369 184 413 353 443 438 351 399 411 526 428 366 492 295 144 4 3 3 2 1 0
0 0 0 0 0 0 0 0 0 0 0 0 37 61 365 196 175 215 186 95 128 29 173 472 406 472 213 404 406 284 292 343 242 196 253 168 195 395 208 215 283 193 76 3 0 1 1 0 0
0 0 0 0 0 0 0 0 0 0 0 0 16 119 240 240 249 308 371 523 412 336 4 20 8 13 151 290 209 175 527 234 160 95 200 96 120 165 186 250 209 143 12 0 1 2 0 0 0
0 0 0 0 0 0 0 0 0 0 0 0 0 2 283 260 328 235 320 290 383 35 6 5 2 2 1 11 167 319 1108 545 217 83 79 137 76 121 262 273 259 104 0 0 0 0 0 0 0
0 0 0 0 0 0 0 0 0 0 0 0 0 0 90 235 289 261 356 230 141 5 8 6 2 2 0 26 99 275 505 441 390 3 1 22 1 28 165 213 135 85 22 0 0 0 1 0 0
0 0 0 0 0 0 0 0 0 0 0 0 0 0 83 218 227 334 207 77 50 5 10 10 5 0 1 4 112 68 285 116 15 0 3 2 18 2 70 159 169 117 85 41 6 4 0 0 0
0 0 0 0 0 0 0 0 0 0 0 0 0 11 63 181 278 348 191 20 24 22 7 9 9 3 11 13 8 6 12 4 1 6 10 9 11 23 26 40 28 127 163 94 25 2 0 0 0
0 0 0 0 0 0 0 0 0 0 0 0 0 31 71 190 248 306 140 3 5 6 8 10 8 4 8 27 9 10 6 11 9 1 2 24 50 68 31 0 0 3 20 42 7 10 0 0 0
0 0 0 0 0 0 0 0 0 0 0 0 0 51 115 203 232 283 41 1 7 6 5 9 7 5 19 10 11 7 13 11 23 12 24 50 60 16 0 0 0 0 0 0 0 0 0 0 0
0 0 0 0 0 0 0 0 0 0 0 0 1 64 172 183 184 221 5 2 7 3 8 11 9 9 19 13 8 13 16 3 39 33 36 40 18 1 0 0 0 0 0 0 0 0 0 0 0
0 0 0 0 0 0 0 0 0 0 0 0 0 67 119 142 161 215 2 4 9 7 12 8 6 6 19 18 13 22 28 31 20 52 29 10 0 0 13 5 0 0 0 0 0 0 0 0 0
0 0 0 0 0 0 0 0 0 0 0 0 0 37 120 147 190 300 3 7 6 14 13 6 3 16 50 17 12 28 26 52 39 38 39 34 0 0 0 10 0 0 0 0 0 0 0 0 0
0 0 0 0 0 0 0 0 0 0 0 0 0 35 107 204 357 316 27 13 9 14 20 7 3 6 12 38 24 14 27 36 32 41 58 42 13 0 1 18 0 0 0 1 0 0 0 0 0
0 0 0 0 0 0 0 0 0 0 0 0 0 1 61 216 522 435 211 46 59 19 21 13 8 3 13 23 7 4 13 70 74 107 52 56 47 7 6 8 17 22 77 62 39 3 10 1 0
0 0 0 0 0 0 0 0 0 0 0 0 0 24 55 166 350 583 375 150 98 15 16 22 13 8 10 26 16 4 3 14 53 78 54 63 100 92 25 32 38 90 58 55 80 36 38 29 47
0 0 0 0 0 0 0 0 0 0 0 0 0 0 40 148 367 694 518 272 173 7 9 20 20 14 8 14 11 4 10 5 66 19 15 24 112 116 56 54 57 89 65 78 102 77 94 66 99
0 0 0 0 0 0 0 0 0 0 0 0 0 0 0 63 292 628 597 302 223 6 2 21 17 18 7 12 20 23 9 7 15 0 1 0 81 107 135 76 84 90 78 86 154 182 162 128 141
0 0 0 0 0 0 0 0 0 0 0 0 0 0 0 22 161 552 685 504 193 4 5 3 15 20 14 12 21 30 14 1 2 9 0 0 52 56 135 144 62 82 98 131 217 290 320 307 252
0 0 0 0 10 3 0 0 0 0 0 0 0 0 0 7 125 467 669 652 191 43 1 3 4 7 18 15 27 42 39 35 16 1 0 59 94 115 117 198 223 230 240 280 342 400 433 378 354
0 0 0 0 0 0 0 2 0 0 0 0 0 0 0 0 78 327 561 597 306 146 11 4 5 11 6 7 14 22 38 45 80 42 27 78 140 80 162 188 247 274 351 406 392 356 345 476 480
0 0 0 0 0 0 0 2 1 0 0 0 0 0 0 0 19 246 462 590 417 204 36 3 5 28 56 48 17 17 17 23 27 56 59 81 127 96 94 140 184 222 221 222 250 267 339 393 564
0 0 0 0 1 1 1 1 7 0 0 0 0 0 0 0 17 198 341 478 508 317 98 0 14 35 57 48 65 36 15 12 16 72 84 65 169 84 75 68 89 68 65 98 186 288 319 303 302
0 0 0 1 0 8 4 0 8 0 0 0 0 0 0 0 51 192 256 345 404 422 238 110 48 44 65 51 62 79 55 13 29 89 166 208 161 79 34 40 36 30 28 43 84 165 215 135 51
CIN
0 0 0 0 0 0 0 0 0 0 0 0 0 0 -3 -6 -1 -2 -140 -130 -92 -53 -12 -1 -5 -15 -16 -2 -2 -1 -1 0 0 0 0 0 0 0 0 0 0 0 0 -3 -7 -1 0 0 -1
0 0 0 0 0 0 0 0 0 0 0 0 0 -46 -18 -2 -21 -43 -95 -133 -99 -100 -23 -1 -15 -12 -12 -11 -13 -5 0 0 0 0 0 0 0 0 0 0 -1 -1 0 -11 -6 -2 0 0 -2
0 0 0 0 0 0 0 0 0 0 0 0 0 -21 -30 -7 -44 -60 -126 -151 -100 -104 -94 0 -44 -35 -4 -1 -3 -19 -18 -1 0 0 0 0 0 0 0 -3 -3 0 0 -3 -3 0 0 0 -1
0 0 0 0 0 0 0 0 0 0 0 0 0 0 -60 -140 -68 -100 -186 -163 -147 -78 -101 -45 -60 -27 -1 -15 -15 -26 -3 -8 -12 -15 -2 0 0 0 0 -7 -1 0 0 -6 0 0 0 0 0
0 0 0 0 0 0 0 0 0 0 0 0 0 0 -22 -176 -224 -238 -235 -262 -159 -107 -108 -33 -93 -32 -3 -20 -28 -23 -4 -27 -59 -29 0 -1 0 0 0 -2 -1 0 -13 -7 0 0 0 0 0
0 0 0 0 0 0 0 0 0 0 0 0 0 -7 -15 -225 -251 -285 -322 -312 -205 -101 -91 -107 -85 -74 -14 -6 -25 -52 -34 -19 -19 -63 0 -1 0 0 -1 -3 -1 -1 -2 -18 0 0 0 0 0
0 0 0 0 0 0 0 0 0 0 0 0 0 0 -24 -165 -274 -307 -345 -287 -244 -132 -72 -68 -36 -29 -96 -24 -53 -26 -18 -3 -19 -9 -1 -7 -2 -4 -3 -2 -1 -1 -2 -6 0 0 0 0 0
0 0 0 0 0 0 0 0 0 0 0 0 -4 0 -7 -147 -315 -282 -268 -265 -286 -190 -98 -53 -25 -5 -26 -5 -26 -63 -30 -45 -39 -3 -6 -5 -12 -6 -6 -7 -2 -3 -5 0 0 0 0 0 0
0 0 0 0 0 0 0 0 0 0 0 0 -44 -34 -91 -307 -338 -309 -295 -293 -230 -234 -127 -53 -43 -19 -62 -1 -6 -4 -13 -15 -20 -16 -11 -8 -6 -2 -11 -6 -5 -10 -14 0 0 0 0 0 0
0 0 0 0 0 0 0 0 0 0 0 0 -39 -81 -210 -287 -277 -237 -200 -121 -136 -98 0 -55 -215 -148 -15 -2 -12 -14 -1 -4 -1 -4 -3 -6 -12 -4 -1 -1 -3 -23 -16 0 0 0 0 0 0
0 0 0 0 0 0 0 0 0 0 0 0 0 -4 -110 -201 -215 -232 -184 -141 -105 -171 -1 0 0 0 0 -10 -5 -1 0 -4 -6 -1 -1 0 -5 -17 0 -2 0 -31 0 0 0 0 0 0 0
0 0 0 0 0 0 0 0 0 0 0 0 0 0 -89 -166 -195 -197 -145 -151 -118 0 0 0 0 0 0 -70 -7 -1 -1 0 0 -17 -39 -10 -4 -50 -1 0 -1 -39 -83 0 0 0 0 0 0
0 0 0 0 0 0 0 0 0 0 0 0 0 0 -132 -180 -171 -161 -163 -183 -150 -36 0 0 0 0 0 -1 -11 -12 -2 -1 -14 0 0 -12 -65 -22 -74 -14 -3 -21 -41 -38 -25 -26 0 0 0
0 0 0 0 0 0 0 0 0 0 0 0 0 -129 -135 -182 -149 -136 -167 -220 -191 -158 0 0 0 0 0 0 0 0 -2 -2 -1 -1 -2 -2 -28 -71 -135 -126 -135 -43 -9 -15 -50 -91 0 0 0
0 0 0 0 0 0 0 0 0 0 0 0 -1 -144 -155 -163 -162 -123 -155 -239 0 0 -1 0 0 0 0 0 -3 0 -3 0 -1 -3 -25 -18 -47 -100 -156 -18 0 -247 -180 -85 -106 -107 0 0 0
0 0 0 0 0 0 0 0 0 0 0 0 -2 -131 -162 -161 -148 -127 -176 -13 0 0 0 -1 0 0 0 -1 0 -1 0 -1 -1 -23 -52 -43 -96 -210 -51 0 0 0 0 0 0 0 0 0 0
0 0 0 0 0 0 0 0 0 0 0 0 -6 -99 -110 -132 -154 -129 -71 0 0 0 0 0 0 0 0 0 0 -1 0 -2 -10 -16 -2 -74 -190 -169 0 0 0 0 0 0 0 0 0 0 0
0 0 0 0 0 0 0 0 0 0 0 0 0 -84 -90 -128 -141 -139 0 0 0 0 0 0 0 0 -37 -2 0 0 -1 -1 -11 -17 -73 -161 0 -13 -78 -85 0 0 0 0 0 0 0 0 0
0 0 0 0 0 0 0 0 0 0 0 0 0 -64 -78 -115 -141 -115 0 0 0 0 0 0 0 0 0 0 0 0 0 0 -2 -38 -70 -100 0 0 0 -84 0 0 0 0 0 0 0 0 0
0 0 0 0 0 0 0 0 0 0 0 0 0 -35 -55 -104 -131 -132 -272 -5 0 0 0 0 0 0 0 0 0 -2 -1 -2 -9 -39 -42 -46 -75 0 -71 -81 -41 0 0 -27 0 0 0 0 0
0 0 0 0 0 0 0 0 0 0 0 0 0 -5 -42 -68 -90 -139 -197 -239 -196 0 0 0 0 0 0 0 -1 -1 -2 -2 -1 -4 -20 -30 -22 -36 -78 -86 -71 -79 -34 -65 -54 -87 -57 -15 0
0 0 0 0 0 0 0 0 0 0 0 0 0 -44 -40 -57 -79 -122 -179 -219 -209 0 0 0 0 0 0 0 0 0 -2 0 0 0 -17 -16 -13 -34 -41 -46 -42 -56 -43 -26 -29 -44 -26 -21 -15
0 0 0 0 0 0 0 0 0 0 0 0 0 0 -29 -44 -75 -85 -167 -206 -195 0 0 0 -1 0 0 0 0 -2 -2 -2 0 -12 -52 -58 -17 -15 -31 -26 -29 -48 -23 -32 -25 -23 -24 -14 -1
0 0 0 0 0 0 0 0 0 0 0 0 0 0 0 -54 -64 -73 -138 -214 -204 0 0 0 -1 -2 0 0 0 0 -5 -2 -3 0 -51 -4 -5 -8 -10 -16 -34 -36 -35 -37 -18 -11 -20 -14 0
0 0 0 0 0 0 0 0 0 0 0 0 0 0 0 -98 -77 -77 -140 -195 -266 0 0 -1 0 -1 0 -1 -1 0 0 -2 -19 -17 -2 0 0 -1 0 -19 -32 -20 -24 -14 -9 -4 -4 0 0
0 0 0 0 0 0 0 0 0 0 0 0 0 0 0 -110 -102 -91 -117 -159 -289 -383 0 0 0 0 0 0 0 -189 -5 -2 -8 -4 -4 0 0 0 -1 -1 -23 -11 -6 -6 -1 -3 0 0 0
0 0 0 0 0 0 0 0 0 0 0 0 0 0 0 0 -102 -98 -120 -174 -267 -330 -154 0 0 0 -9 0 0 -73 -125 -120 -42 -10 -2 0 -3 -1 -1 0 -2 -1 -1 0 0 0 -1 0 0
0 0 0 0 0 0 0 0 0 0 0 0 0 0 0 0 -118 -101 -112 -182 -252 -297 -392 0 0 -314 -235 -230 0 0 0 0 0 -61 0 -10 -4 -2 -2 0 0 0 -2 -5 -3 -1 -3 -10 0
0 0 0 0 0 0 0 0 -2 0 0 0 0 0 0 0 -112 -106 -113 -139 -194 -252 -345 -1 -392 -308 -253 -235 -198 -194 0 0 -37 -70 -39 -57 -15 -21 -19 -14 -11 -17 -21 -16 -3 -3 -16 -6 -1
0 0 0 0 0 0 0 0 -10 0 0 0 0 0 0 0 -150 -129 -137 -157 -191 -227 -282 -361 -392 -338 -294 -267 -235 -209 -193 -196 -167 -133 -95 -42 -37 -30 -49 -35 -33 -38 -37 -27 -8 -2 -3 -17 -53
Wind_Speed
9 8 3 5 8 7 4 8 2 5 4 1 4 6 5 7 6 7 4 4 2 2 6 11 9 12 13 14 19 20 21 21 21 21 22 21 21 19 20 21 22 24 24 22 21 21 21 21 20
8 6 5 2 8 8 7 3 7 3 3 3 3 7 8 9 1 1 3 3 1 2 6 11 10 11 12 12 18 20 20 21 22 22 21 22 22 20 21 21 21 23 22 23 22 22 22 20 19
6 6 6 5 5 9 2 4 4 3 5 8 5 5 3 1 2 2 6 1 2 3 4 8 12 12 12 10 16 22 24 22 20 19 21 22 22 23 22 23 20 23 21 23 22 22 21 19 17
6 6 5 8 9 3 4 1 4 6 3 6 7 6 3 2 3 3 3 1 3 3 2 3 8 8 12 15 14 8 11 17 21 18 15 24 24 23 21 23 21 23 22 22 22 21 19 18 17
5 4 7 9 9 5 6 2 3 6 3 5 7 4 4 5 6 5 2 2 2 3 3 7 7 7 10 16 19 22 24 23 20 24 27 24 25 26 25 22 22 22 23 23 23 21 20 18 17
7 5 8 10 7 5 6 4 3 3 3 4 6 7 4 7 8 5 3 1 1 4 5 5 8 5 4 9 14 11 14 18 22 23 32 28 25 25 23 23 23 23 22 23 21 20 20 18 18
14 8 11 10 10 9 10 5 4 6 6 6 2 8 2 7 5 6 4 1 2 3 6 7 8 8 3 9 7 10 14 14 16 22 22 24 23 23 22 22 22 23 23 23 22 20 18 18 17
9 7 9 10 10 12 9 4 3 6 5 2 3 6 6 6 8 6 5 2 3 3 5 7 10 7 5 6 5 6 7 12 20 19 20 17 21 21 22 21 23 24 22 23 22 19 18 18 16
6 9 11 13 11 9 8 5 4 2 8 4 6 9 4 8 8 6 5 5 4 3 3 6 7 11 7 7 6 8 13 9 15 18 22 20 14 18 21 19 22 23 22 22 22 19 18 15 14
13 12 14 5 10 8 9 8 9 7 9 9 10 11 7 9 9 8 7 6 6 6 3 2 5 7 8 7 5 6 9 10 10 11 16 13 15 13 15 17 22 24 22 21 21 19 18 16 12
13 18 13 9 9 11 12 12 9 12 13 10 10 9 13 12 10 8 7 5 6 4 4 4 3 4 4 3 3 5 5 5 8 14 22 18 13 10 10 12 12 13 19 12 15 16 12 13 10
14 16 17 13 11 14 17 15 15 16 17 12 10 8 9 13 11 10 8 7 6 6 5 5 4 4 3 3 4 4 4 3 5 6 11 14 10 11 10 11 13 12 11 15 13 9 10 11 11
19 18 14 15 15 15 16 18 20 23 17 16 11 9 11 11 10 9 6 5 5 6 6 6 6 4 4 3 4 3 4 5 10 12 9 12 7 9 10 11 10 11 12 11 12 10 9 9 10
7 13 17 15 15 14 16 20 14 21 12 10 12 14 11 11 11 9 9 7 7 5 6 6 6 5 5 5 1 4 2 9 11 10 12 14 9 8 9 12 10 11 9 10 10 10 10 9 9
12 17 18 18 19 18 16 21 24 21 7 12 12 11 11 11 11 11 9 7 8 6 7 7 7 6 6 5 6 5 4 9 11 11 11 12 13 12 12 11 10 10 8 8 10 10 9 9 8
11 14 17 4 6 5 10 18 13 7 9 11 12 10 11 12 12 11 8 8 9 8 8 8 7 7 7 3 7 7 6 11 10 9 9 12 12 16 13 9 8 10 9 8 9 9 9 8 7
15 15 17 13 12 10 13 14 5 6 8 10 9 12 12 11 12 11 9 9 10 9 9 9 8 8 8 4 9 9 10 11 8 7 9 12 13 13 11 8 9 12 8 7 8 8 8 7 7
17 18 15 16 3 11 14 18 14 14 9 10 9 12 13 13 14 12 12 10 9 9 9 9 8 8 9 4 9 7 7 6 7 6 8 11 9 8 9 11 12 11 10 9 9 10 7 7 6
15 15 18 16 3 8 12 15 16 17 9 13 10 12 14 13 12 14 13 11 10 10 10 11 9 10 9 5 8 9 10 8 6 5 8 7 10 13 14 11 13 11 11 11 12 9 10 6 5
20 19 20 18 5 10 18 18 18 16 17 13 11 13 14 14 15 15 16 15 14 12 12 13 12 10 7 8 6 6 9 7 5 7 9 11 10 11 11 12 10 12 10 11 9 9 8 6 8
20 21 20 17 11 14 18 21 23 17 12 9 10 12 13 16 17 17 18 16 15 14 14 14 15 13 11 9 7 6 9 6 6 10 9 9 12 14 11 12 11 12 10 8 10 10 10 8 8
20 19 18 18 16 13 1 10 9 8 14 12 11 12 13 15 16 17 18 17 17 15 14 14 15 15 12 13 10 12 14 13 10 11 8 9 13 12 14 14 13 12 8 10 11 11 10 9 9
18 14 14 14 15 15 16 12 11 9 16 16 15 13 13 15 17 19 19 18 17 15 15 15 14 16 14 14 12 11 11 11 8 9 11 11 12 13 13 13 14 11 10 11 11 11 12 9 10
6 11 10 7 9 11 17 13 12 11 13 10 6 9 12 14 17 17 17 17 16 16 16 16 16 16 15 15 15 17 17 13 10 10 9 12 12 12 12 13 11 11 11 11 10 11 12 12 11
16 11 6 9 8 9 4 12 14 3 6 7 9 8 9 12 16 18 20 19 18 19 18 17 18 17 18 17 17 18 16 16 15 17 11 13 13 11 11 11 12 11 11 11 11 11 12 13 12
18 18 7 9 9 7 6 8 12 7 12 12 8 5 5 11 16 20 21 19 19 21 21 20 20 17 17 17 18 17 21 11 12 13 11 13 13 13 13 12 13 13 13 13 12 10 11 12 12
15 20 16 16 13 8 9 7 12 12 9 9 10 10 10 11 16 20 21 20 19 21 22 21 21 20 21 20 18 19 18 20 16 20 18 14 14 13 16 17 16 16 16 15 13 11 13 13 14
20 6 10 11 7 11 9 10 7 5 9 8 5 7 7 10 16 18 20 21 20 19 18 21 21 22 21 21 19 18 19 20 18 16 18 18 16 18 17 17 17 16 15 15 15 13 14 15 12
12 14 13 10 14 11 11 6 6 14 11 4 10 7 3 8 14 15 17 18 18 19 19 20 21 22 20 20 19 19 18 20 19 17 18 18 17 18 18 18 17 16 16 15 15 16 16 15 14
9 18 20 13 12 10 14 14 5 2 1 3 8 5 5 4 10 13 15 17 19 20 20 20 20 21 20 19 19 20 19 20 20 20 20 19 19 19 18 17 17 17 17 16 17 17 14 15 14
Wind_Direction
178 204 225 227 240 244 212 173 358 229 220 201 320 264 310 317 306 335 81 116 113 246 197 179 171 166 168 176 163 164 160 158 151 150 148 151 146 146 143 137 129 128 124 129 124 120 121 118 110
173 177 213 249 257 247 166 142 220 275 294 295 251 220 234 268 286 115 190 120 24 18 287 186 169 171 169 183 175 161 159 157 153 151 150 148 147 149 138 129 127 122 130 131 127 125 121 118 107
178 228 253 258 260 266 268 187 295 293 271 235 223 260 303 250 131 81 70 67 317 140 269 196 175 181 169 159 166 172 171 154 147 149 152 149 149 143 136 128 130 130 131 130 132 124 122 114 109
192 188 197 249 254 212 260 316 341 293 155 210 226 230 191 33 130 71 151 302 280 238 183 184 180 193 160 177 136 169 218 156 153 136 169 152 149 141 138 130 136 130 137 131 128 124 121 117 115
210 241 240 246 257 252 218 267 337 311 302 166 210 255 250 152 128 132 103 16 283 224 196 214 199 169 151 158 187 187 189 183 159 163 187 159 151 140 137 137 142 140 133 130 127 127 125 120 118
203 273 236 247 228 225 231 222 299 286 263 164 215 259 263 124 182 130 93 70 292 223 199 219 216 218 174 147 159 156 156 204 183 166 175 160 147 142 143 151 143 135 132 125 127 127 125 124 122
254 233 254 277 270 251 226 179 267 316 273 230 280 250 93 183 155 145 124 138 71 252 216 214 234 219 211 127 150 167 158 145 156 156 180 155 143 142 142 138 136 128 132 126 128 124 125 126 125
254 262 255 242 259 258 167 214 318 283 328 29 246 252 261 126 162 161 144 121 116 249 237 214 217 230 199 175 195 214 185 166 155 162 164 157 146 138 137 135 130 129 129 127 127 123 126 130 125
244 243 247 243 246 243 172 250 154 294 272 219 220 269 47 141 158 151 149 157 164 190 237 199 207 218 206 215 176 215 218 199 169 185 176 162 157 148 145 142 136 129 131 129 124 127 126 127 123
224 233 249 263 256 256 212 254 295 272 255 249 240 238 205 182 199 195 199 188 203 201 187 195 179 176 214 228 198 205 207 205 197 186 189 161 158 148 152 146 134 129 130 126 124 127 127 158 146
219 247 246 226 252 261 268 271 268 267 267 269 272 272 203 207 207 213 207 222 208 193 167 191 183 168 165 194 215 212 222 216 197 205 187 160 146 142 149 145 139 131 134 134 137 139 161 145 147
250 238 258 250 264 254 267 281 267 260 267 302 293 285 209 206 213 210 204 200 190 195 180 183 163 183 188 200 209 229 240 207 157 105 146 133 134 142 143 148 149 142 156 148 149 161 138 152 146
238 255 252 250 254 255 272 266 273 274 270 283 270 243 214 204 210 201 200 196 210 193 183 195 172 173 170 202 208 190 192 151 146 132 126 110 105 132 142 143 152 148 147 158 161 151 155 147 158
225 256 259 259 255 245 254 264 260 261 284 258 243 240 225 206 198 187 195 194 217 199 187 176 186 168 212 169 169 106 180 143 131 121 134 141 147 158 145 149 147 145 149 153 158 154 155 156 159
264 262 259 247 248 245 251 262 248 262 243 258 244 240 223 208 193 200 191 199 205 202 186 185 175 164 198 136 132 104 108 129 122 113 113 149 160 155 146 143 147 139 144 147 151 158 155 166 165
249 243 262 226 232 221 213 264 243 219 224 262 252 229 211 209 204 193 182 199 193 184 191 187 171 170 154 125 126 118 105 101 102 120 137 162 158 145 139 141 134 144 143 140 157 163 167 165 159
230 259 247 253 215 251 217 270 235 176 258 270 242 227 211 207 203 190 177 199 190 184 184 185 170 162 143 137 126 125 119 115 110 133 156 160 149 145 137 147 147 142 144 144 157 177 170 155 172
232 237 254 257 173 228 238 254 262 260 247 265 247 227 220 211 203 193 175 196 185 182 175 179 166 164 145 131 126 118 125 108 120 160 146 144 137 146 161 149 160 160 136 161 172 174 159 172 172
268 271 257 265 82 271 248 260 267 268 243 263 230 226 223 213 192 189 175 185 185 181 171 171 163 172 161 151 144 142 152 148 138 142 133 134 156 176 176 157 167 149 165 179 170 162 162 152 168
242 252 258 272 249 252 270 265 266 263 257 253 240 223 222 200 192 183 180 184 187 183 178 173 175 171 170 158 134 159 145 148 155 133 153 178 177 186 170 163 161 169 169 164 162 180 163 178 184
234 244 253 269 270 257 267 269 263 247 249 237 237 241 219 207 193 184 186 188 187 187 184 175 179 175 177 155 129 128 148 133 152 168 176 182 187 190 177 176 182 193 181 168 185 192 185 189 195
242 235 254 267 267 269 161 284 272 245 235 216 227 222 221 205 199 190 191 189 189 190 183 179 181 178 176 171 159 155 166 176 180 175 165 182 191 189 193 186 196 184 174 188 194 199 201 215 208
246 270 249 259 261 265 252 255 269 238 250 247 229 215 217 205 202 192 190 187 189 185 187 179 177 178 176 169 172 169 165 191 178 180 177 180 187 197 199 196 199 185 194 202 205 200 204 213 238
205 231 241 246 254 246 241 239 258 241 236 253 243 225 215 206 200 195 181 181 189 183 190 183 178 180 176 182 179 186 182 180 179 191 191 194 201 195 205 208 203 204 206 209 209 210 213 220 231
223 226 215 219 209 247 252 212 246 225 241 246 277 265 190 202 195 191 180 184 184 184 187 187 186 183 180 183 185 192 182 184 187 193 195 198 214 214 219 215 212 214 213 213 216 215 224 226 231
213 214 232 243 246 264 135 229 235 240 251 247 260 261 208 198 196 194 186 184 187 187 184 187 188 190 180 188 192 192 187 187 184 198 196 211 208 211 220 216 220 217 213 216 219 224 229 231 234
205 223 240 276 277 267 259 224 267 242 231 223 251 256 233 213 199 195 186 183 188 193 185 185 187 194 188 188 191 194 193 196 191 189 195 207 205 211 216 214 215 219 218 220 222 228 232 232 235
245 230 205 220 239 240 234 234 246 178 205 215 284 306 254 218 204 194 188 184 186 193 185 184 188 195 191 192 195 197 196 199 202 200 200 207 209 215 212 215 219 222 222 223 227 231 235 235 235
210 231 232 274 225 258 269 262 182 245 257 202 322 336 264 210 201 193 189 184 186 185 188 188 193 193 194 195 196 199 198 200 203 204 206 210 213 212 216 217 221 225 229 229 231 232 235 236 238
264 226 225 234 230 236 259 257 123 224 89 286 314 36 31 172 195 192 189 182 185 187 189 191 191 195 195 194 196 199 201 202 205 208 208 206 211 213 217 224 231 232 233 234 236 238 232 231 226